Regional Weather Roundup
Issued by NWS San Diego, CA

Home | Current Version | Previous Version | Text Only | Print | Product List | Glossary On
Versions: 1 2 3 4 5 6 7 8 9 10 11 12 13 14 15 16 17 18 19 20 21 22 23 24 25 26 27 28 29 30 31 32 33 34 35 36 37 38 39 40 41 42 43 44 45 46 47 48 49 50
000
ASUS46 KSGX 261311
RWRSGX

SAN DIEGO HOURLY WEATHER ROUNDUP
NATIONAL WEATHER SERVICE SAN DIEGO CA
500 AM PST SUN FEB 26 2017

NOTE: "FAIR" INDICATES FEW OR NO CLOUDS BELOW 12,000 FEET WITH NO
SIGNIFICANT WEATHER AND/OR OBSTRUCTIONS TO VISIBILITY.

CAZ042-043-060-061-PZZ750-775-261400-

GREATER SAN DIEGO AREA

CITY           SKY/WX    TMP DP  RH WIND       PRES   REMARKS
SAN DIEGO AP   CLOUDY    54  43  66 CALM      30.02S
POINT LOMA       N/A     53  44  70 W7          N/A
NATIONAL CITY    N/A     53  48  82 CALM      30.01F
CHULA VISTA      N/A     52  48  87 CALM      29.92F
IMPERIAL BEACH CLOUDY   N/A N/A N/A E5        30.01F
BROWN FIELD    CLOUDY    50  47  89 SE5       29.99F
MIRAMAR MCAS     N/A     54  46  74 CALM      29.99S
MONTGOMERY FLD CLOUDY    51  44  77 CALM      30.00S

$$

NORTH SAN DIEGO COUNTY

CITY           SKY/WX    TMP DP  RH WIND       PRES   REMARKS
CAMP PENDLETON LGT RAIN  50  48  93 W3        30.00R
OCEANSIDE AP   LGT RAIN  53  45  74 W12       29.99R
OCEANSIDE HBR    N/A     54  44  69 NW13      30.02R
VISTA            N/A     51  44  79 CALM      29.97F
CARLSBAD       CLOUDY    53  43  68 SW8       29.98S
DEL MAR          N/A     53  44  72 W2        30.02S
LA JOLLA SCRIP   N/A     54  45  72 SW3       30.00S
FALLBROOK        N/A     49  48  95 CALM      29.97S
ESCONDIDO        N/A     50  45  82 SE1       30.00F
SAN MARCOS       N/A     50  44  77 CALM      30.00S

$$

EAST SAN DIEGO COUNTY

CITY           SKY/WX    TMP DP  RH WIND       PRES   REMARKS
RAMONA         LGT RAIN  46  45  96 S6        29.97F
SANTEE LAKES     N/A     50  46  85 CALM      30.00S
LA MESA          N/A     49  45  88 CALM      29.94S
JAMUL            N/A     46  44  92 CALM      30.00F
DESCANSO N       N/A     38  36  94 SW1       29.93F
MT. LAGUNA OBS   N/A     28  27  96 W12       29.50S WCI  18
CAMPO            N/A     41  41 100 W7        29.92S

$$

ORANGE COUNTY AND THE LOS ANGELES BASIN

CITY           SKY/WX    TMP DP  RH WIND       PRES   REMARKS
JOHN WAYNE AP  LGT RAIN  51  46  83 NE3       29.99S
LAKE FOREST FR   N/A     47  42  83 CALM      29.90R
HUNTINGTON BCH   N/A     50  46  85 CALM      30.01R
LOS ALAMITOS   MOCLDY    49  40  71 CALM      29.99S
FULLERTON      LGT RAIN  50  46  86 CALM      29.98S
LONG BEACH     CLOUDY    50  43  77 N7        29.99S
L.A. AP        CLOUDY    49  44  83 NE5       29.99F
L.A. DOWNTOWN  CLOUDY    50  43  77 CALM      29.98F

$$

THE INLAND EMPIRE

CITY           SKY/WX    TMP DP  RH WIND       PRES   REMARKS
CORONA         CLOUDY    47  45  93 CALM      30.00S
CHINO          RAIN      48  45  89 W8        30.00R FOG
ONTARIO        RAIN      46  45  96 NW6       29.98R FOG
SAN BERNARDINO RAIN      47  43  86 CALM      29.99R
RIVERSIDE AP   RAIN      46  45  96 W7        29.99R FOG
MORENO VALLEY    N/A     45  45  99 W5        28.09R
MARCH ARB      LGT RAIN  45  45 100 NW5       29.97R FOG
HORSETHIEF CYN   N/A     46  41  82 NE1       30.00R
PERRIS           N/A     46  45  97 S2        30.01R
FRENCH VALLEY  CLOUDY    46  43  87 SW6       29.97R
TEMECULA         N/A     49  46  90 SW7       30.04R

$$

SAN BERNARDINO AND RIVERSIDE COUNTY MOUNTAINS

CITY           SKY/WX    TMP DP  RH WIND       PRES   REMARKS
BIG BEAR AP    LGT SNOW  27  23  86 W6        29.87R WCI  20
ANGELUS OAKS     N/A     29  26  87 CALM      29.91R
PINE COVE        N/A     29  28  98 NW1       29.92S

$$

SOUTHERN DESERT INCLUDING THE COACHELLA VALLEY

CITY           SKY/WX    TMP DP  RH WIND       PRES   REMARKS
PALM SPRINGS   MOCLDY    55  40  56 VRB7      29.88S
PALM DESERT      N/A     47  39  73 CALM        N/A
THERMAL        PTCLDY    55  37  50 N10       29.87S
BLYTHE         CLEAR     50  35  56 SW7       29.86R
IMPERIAL AP    PTCLDY    55  40  56 W16       29.87F
EL CENTRO NAS  LGT RAIN  56  37  49 W23       29.90S
YUMA AZ        CLOUDY    55  36  48 NW8       29.89R

$$

UPPER DESERT

CITY           SKY/WX    TMP DP  RH WIND       PRES   REMARKS
VICTORVILLE AP RAIN      39  36  87 W3        29.93R
HESPERIA         N/A     40  36  87 CALM      30.08R
PALMDALE       LGT RAIN  40  37  89 N5        29.93S
LANCASTER      CLOUDY    38  36  92 NW6       29.94S WCI  33
EDWARDS AFB    LGT RAIN  37  37 100 W3        29.92F
DAGGETT        LGT RAIN  41  37  86 NW12      29.95R
29 PALMS N     CLOUDY    46  29  51 NW9       29.95R
NEEDLES        MOCLDY    52  30  43 NW6       29.87R

$$

REGIONAL REPORTS

CITY           SKY/WX    TMP DP  RH WIND       PRES   REMARKS
SANTA BARBARA  LGT RAIN  46  45  96 NE7       29.95R
SANDBERG       SNOW      32  30  92 S8        29.88F VSB 1/4 WCI  25
LAS VEGAS NV   PTCLDY    40  24  53 S5        29.89R
PHOENIX AZ     CLOUDY    53  34  48 E5        29.87S
TIJUANA        CLOUDY    50  45  81 CALM      30.02F
ENSENADA NW      N/A     53  32  45 CALM      29.99F

$$

OFFSHORE ISLANDS

CITY           SKY/WX    TMP DP  RH WIND       PRES   REMARKS
CATALINA ARPT  LGT RAIN  44  43  96 CALM      29.95F
SAN NICOLAS IS CLOUDY   N/A N/A N/A W18       29.95R HAZE

$$

MARINE AND OFFSHORE BUOY REPORTS

STATION/POSITION SKY/WX   TEMP    WIND        PRES    VSBY  SWELL
                          AIR SEA DIR/SP/G                  HT/PER/DIR
                          (F)     (DEG/KT/KT) (MB)    (MI)  (FT/S/D)
TANNER BANKS               56 59  240/ 14/ 17 1015.1          5/290/15
S CLEMENTE BASIN           54 59  260/  8/ 10 1015.8          3/300/15
SAN NICOLAS IS.               55                N/A           3/300/14
SO. S. ROSA ISLA           51 56  300/ 17/ 21 1013.4          3/300/15
W. S. BARBARA CH           49 54  120/ 16/ 19 1013.1          3/300/15
M. S. BARBARA CH                  100/ 12/ 16 1014.8R
S. MONICA BASIN            51      90/  6/  8 1015.1R         2/260/14
S PEDRO CHANNEL               57                N/A           2/250/15
CMP PENDLETON NS              58                N/A           2/230/14
OCEANSIDE OFFSHR              58                N/A           2/220/15
TORREY PINES OTR              59                N/A           2/250/15
POINT LOMA SOUTH              59                N/A           2/270/15

$$




USA.gov is the U.S. government's official web portal to all federal, state and local government web resources and services.